Weather in Ural

Russia / Krasnoyarsk Krai     55°54′21″N   94°44′56″E
temp.,
°C
wind,
m/s
gust,
m/s
humid.,
%
clouds,
%
prec.,
mm/h
press.,
hPa
HPBL,
m
10 august, wed
wed1001:00+14n22865 0.4 100911
04:00+12nw11885 0.0 100911
07:00+14wsw118355 0.0 100962
10:00+21wsw225722 0.0 1008516
13:00+25wnw4536100 0.0 10072622
16:00+16ene2479100 0.1 1009111
19:00+17sw237577 0.1 1009112
22:00+17wsw247498 0.0 1009101
11 august, thu
thu1101:00+13wnw22935 0.0 101024
04:00+12wnw22960 0.0 101114
07:00+15w12880 0.0 1011119
10:00+21w34580 0.0 1011963
13:00+25wnw344243 0.0 10102009
16:00+25nw234298 0.0 10092033
19:00+21ene226141 0.0 101029
22:00+17nne118119 0.0 101011
12 august, fri
fri1201:00+15nnw11875 0.0 101011
04:00+15sw118387 0.1 100911
07:00+16wnw11865 0.5 100981
10:00+19nw237982 0.4 1009287
13:00+24wnw45455 0.5 10081559
16:00+25n444257 0.0 10082032
19:00+20nne115996 0.0 100948
22:00+14n22724 0.0 101115
13 august, sat
sat1301:00+11n117945 0.0 101110
04:00+11nw117948 0.0 101011
07:00+13w007082 0.0 101184
10:00+19ene115495 0.0 1009679
13:00+23e124440 0.0 10081885
16:00+23w123496 0.0 10072270
19:00+21ne35515 0.0 1006165
22:00+13e22810 0.0 100711
14 august, sun
sun1401:00+11ene118653 0.0 100710
04:00+11e1187100 0.0 100510
07:00+13sse1380100 0.1 100587
10:00+19w5764100 0.5 1004920
13:00+17sw3883100 1.0 1003712
16:00+20w59677 1.5 10021324
19:00+16sw498912 5.7 1002361
22:00+14sw4119225 1.1 1002388